Location: La Fredeussais
(48.1780°N, 1.3980°W)
Time: 09:19:19
(UTC+00:00)

STARLINK-2521 - Pass Details

Date: 30 July 2021
Orbit: 546 x 548 km, 53.1° (Epoch: 19 September)

Event Time Altitude Azimuth Distance (km) Brightness Sun altitude
Rises 21:31:11 0° 287° (WNW) 2,714 8.1 -14.5°
Reaches altitude 10° 21:34:23 10° 260° (W) 1,816 6.6 -14.8°
Maximum altitude 21:36:26 14° 230° (SW) 1,598 6.0 -15.0°
Drops below altitude 10° 21:38:29 10° 200° (SSW) 1,810 5.9 -15.2°
Enters shadow 21:38:30 10° 200° (SSW) 1,813 5.9 -15.2°
